Starlink 31827

operational
NORAD ID: 59727 Int'l Des: 2024-088 Owner: SPXS Country: US Constellation: starlink
LEOCIRCULAR

Über Starlink 31827

Beschreibung wird geladen...

Live-Position

3D-Globus wird geladen...

Nächste Überflüge

Höhenverlauf

Altitude vs Time

uPlot chart will show altitude changes over time

Zweizeiliger Elementsatz

1 59727U 24088V 26034.44020978 -.00000832 00000-0 -15982-4 0 9995
2 59727 53.1603 299.3308 0001237 98.8650 261.2491 15.30192234 98555
Epoch: 3. Feb. 2026 • Age: 28 hours

Aktueller Status

Höhe 483.6 km
Geschwindigkeit 7.62 km/s
Subsatellitenpunkt -27.22°S, 149.56°E
Startdatum 10. Mai 2024
Alter 1.7 years
Typ internet

Technische Details

Klassifizierung Payload
Masse 730.00 kg
Trockenmasse 700.00 kg
Gesamtmasse 730.00 kg
Länge 0.30 m
Durchmesser 4.10 m
Spannweite 29.00 m
Form Box + pan
Hersteller SPXS
Bus-Typ Starlink V2M
Phasenstatus In Orbit
Besitzer/Staat SPXS/US

Große Konstellationen

Loading constellations...